Tracking 23726 objects as of 22-Sep-2021
HD Live streaming from Space Station
objects crossing your sky now

KX-09

Track KX-09 now!
10-day predictions


NORAD ID: 44520
Int'l Code: 2019-058B
Perigee: 598.3 km
Apogee: 613.9 km
Inclination: 97.8 °
Period: 96.7 minutes
Semi major axis: 6977 km
RCS: Unknown
Launch date: August 30, 2019
Source: People's Republic of China (PRC)
Launch site: Jiuquan Satellite Launch Center, China (JSC)
aabbcc
Your satellite tracking list
Your tracking list is empty




NASA's NSSDC Master Catalog

Two Line Element Set (TLE):
1 44520U 19058B   21265.53584613  .00000349  00000-0  42283-4 0  9998
2 44520  97.7915 271.0646 0011210 328.2161  31.8357 14.89670288112182
Source of the keplerian elements: AFSPC